Paris, IL

9:12 AM CDT on September 20, 2017 (GMT -0500)
Edgar County

Weather History for KPRG - January, 2013

Change the Weather History Date:

Friday, January 11, 2013

  Actual Average (KHUF) Record (KHUF)
Temperature  
Mean Temperature 55 °F -  
Max Temperature 58 °F 32 °F 63 °F (2017)
Min Temperature 52 °F 12 °F -17 °F (1977)
Degree Days  
Heating Degree Days 10    
Growing Degree Days 5 (Base 50)    
Moisture  
Dew Point 51 °F    
Average Humidity 86    
Maximum Humidity 98    
Minimum Humidity 76    
Precipitation  
Precipitation 0.33 in - - ()
Sea Level Pressure  
Sea Level Pressure 29.86 in    
Wind  
Wind Speed 15 mph (South)    
Max Wind Speed 25 mph    
Max Gust Speed 30 mph    
Visibility 8 miles    
Events Rain    
Averages and records for this station are not official NWS values.
T = Trace of Precipitation, MM = Missing Value Source: NWS Daily Summary

Daily Weather History Graph

Daily Weather History Graph

Search for Another Location

Airport or City:

Trip Planner

Search our weather history database for the weather conditions in past years. The results will help you decide how hot, cold, wet, or windy it might be!

Date:

Astronomy

Jan. 11, 2013 Rise Set
Actual Time 7:11 AM CST 4:46 PM CST
Civil Twilight 6:41 AM CST 5:16 PM CST
Nautical Twilight 6:07 AM CST 5:49 PM CST
Astronomical Twilight 5:35 AM CST 6:22 PM CST
Moon 6:43 AM CST (1/11) 5:04 PM CST (1/11)
Length of Visible Light 10h 35m
Length of Day
9h 35m
Waning Crescent, 0% of the Moon is Illuminated
Jan 11
Waning Crescent
Jan 11
New
Jan 18
First Quarter
Jan 26
Full
Feb 3
Last Quarter

Hourly Weather History & Observations

Time (CST) Temp. Dew Point Humidity Pressure Visibility Wind Dir Wind Speed Gust Speed Precip Events Conditions
12:15 AM 52.7 °F 51.8 °F 97% 29.87 in 5.0 mi SE 11.5 mph - 0.05 in Rain Light Rain
12:35 AM 53.6 °F 53.1 °F 98% 29.87 in 10.0 mi SE 17.3 mph 23.0 mph 0.08 in   Drizzle
12:55 AM 53.6 °F 52.9 °F 97% 29.86 in 5.0 mi SSE 9.2 mph - 0.12 in Rain Light Rain
1:15 AM 53.8 °F 53.1 °F 97% 29.86 in - SE 10.4 mph - 0.03 in Rain Light Rain
1:35 AM 56.1 °F 55.6 °F 98% 29.85 in - SSE 20.7 mph - 0.06 in   Overcast
1:55 AM 57.0 °F 56.3 °F 97% 29.85 in 7.0 mi SSE 20.7 mph - 0.12 in Rain Rain
2:15 AM 57.2 °F 56.3 °F 97% 29.85 in 10.0 mi South 21.9 mph 25.3 mph 0.01 in Rain Light Rain
2:35 AM 57.4 °F 56.5 °F 97% 29.86 in - South 25.3 mph 29.9 mph 0.03 in Rain Rain
2:55 AM 57.0 °F 55.8 °F 96% 29.83 in - SSE 21.9 mph - 0.08 in   Unknown
3:15 AM 56.3 °F 54.9 °F 95% 29.78 in - SE 15.0 mph - 0.01 in   Unknown
3:35 AM 55.6 °F 54.5 °F 96% 29.81 in - SSE 16.1 mph - 0.01 in   Unknown
3:55 AM 55.4 °F 54.1 °F 96% 29.79 in - SSE 11.5 mph - 0.01 in   Unknown
4:15 AM 55.0 °F 54.0 °F 96% 29.79 in - South 12.7 mph - N/A   Unknown
4:35 AM 54.9 °F 53.8 °F 96% 29.79 in - SSE 15.0 mph - N/A   Mostly Cloudy
4:55 AM 55.4 °F 54.0 °F 95% 29.80 in - South 19.6 mph - N/A   Overcast
5:15 AM 55.4 °F 54.0 °F 95% 29.81 in - South 17.3 mph - N/A   Overcast
5:35 AM 55.4 °F 54.0 °F 95% 29.81 in - South 15.0 mph - N/A   Unknown
5:55 AM 55.6 °F 54.1 °F 95% 29.82 in - South 12.7 mph - N/A   Unknown
6:15 AM 55.4 °F 53.6 °F 94% 29.82 in - SSW 10.4 mph - N/A   Unknown
6:35 AM 54.1 °F 52.7 °F 95% 29.84 in - SSW 9.2 mph - N/A   Unknown
6:55 AM 53.4 °F 52.0 °F 95% 29.85 in - SW 6.9 mph - N/A   Unknown
7:15 AM 52.7 °F 51.4 °F 95% 29.86 in 10.0 mi SW 6.9 mph - N/A   Mostly Cloudy
7:35 AM 52.2 °F 51.1 °F 96% 29.87 in - SSW 10.4 mph - N/A   Unknown
7:55 AM 52.7 °F 51.1 °F 94% 29.87 in - SW 15.0 mph 19.6 mph N/A   Unknown
8:15 AM 52.7 °F 50.0 °F 91% 29.87 in - SW 9.2 mph - N/A   Unknown
8:35 AM 54.0 °F 51.8 °F 92% 29.89 in - SW 12.7 mph - N/A   Unknown
8:55 AM 54.1 °F 50.7 °F 88% 29.89 in - SW 13.8 mph - N/A   Unknown
9:15 AM 54.0 °F 50.0 °F 86% 29.90 in - SW 18.4 mph 23.0 mph N/A   Unknown
9:35 AM 53.6 °F 49.3 °F 85% 29.90 in - SW 17.3 mph 23.0 mph N/A   Mostly Cloudy
9:55 AM 54.1 °F 49.3 °F 84% 29.90 in - SW 17.3 mph 21.9 mph N/A   Scattered Clouds
10:15 AM 54.7 °F 49.5 °F 83% 29.90 in - SW 16.1 mph - N/A   Clear
10:35 AM 55.4 °F 49.5 °F 80% 29.90 in - SW 13.8 mph 23.0 mph N/A   Clear
10:55 AM 55.9 °F 49.6 °F 79% 29.89 in - SW 16.1 mph 23.0 mph N/A   Clear
11:15 AM 55.9 °F 49.1 °F 78% 29.89 in - SW 19.6 mph 25.3 mph N/A   Mostly Cloudy
11:35 AM 55.4 °F 48.6 °F 78% 29.87 in - SW 17.3 mph 20.7 mph N/A   Overcast
11:55 AM 57.2 °F 50.0 °F 77% 29.87 in - SW 17.3 mph - N/A   Overcast
12:15 PM 56.5 °F 50.0 °F 79% 29.87 in - SW 16.1 mph - N/A   Mostly Cloudy
12:35 PM 56.3 °F 49.6 °F 78% 29.86 in - SSW 19.6 mph - N/A   Mostly Cloudy
12:55 PM 57.4 °F 50.5 °F 78% 29.86 in - SSW 15.0 mph 23.0 mph N/A   Mostly Cloudy
1:15 PM 57.0 °F 50.5 °F 79% 29.85 in - SSW 18.4 mph 23.0 mph N/A   Mostly Cloudy
1:35 PM 57.2 °F 49.8 °F 76% 29.85 in - SSW 13.8 mph - N/A   Scattered Clouds
1:55 PM 58.1 °F 50.9 °F 77% 29.86 in - South 13.8 mph - N/A   Clear
2:15 PM 57.4 °F 50.5 °F 78% 29.86 in 10.0 mi South 23.0 mph - N/A   Scattered Clouds
2:35 PM 57.9 °F 50.7 °F 77% 29.86 in - South 19.6 mph 24.2 mph N/A   Scattered Clouds
2:55 PM 57.6 °F 50.2 °F 76% 29.85 in - South 18.4 mph 23.0 mph N/A   Clear
3:15 PM 56.8 °F 50.0 °F 78% 29.85 in - South 16.1 mph 21.9 mph N/A   Clear
3:35 PM 57.0 °F 50.2 °F 78% 29.85 in - South 16.1 mph - N/A   Clear
3:55 PM 57.0 °F 50.0 °F 77% 29.87 in - South 16.1 mph - N/A   Clear
4:15 PM 56.3 °F 49.6 °F 78% 29.86 in - South 17.3 mph 23.0 mph N/A   Clear
4:35 PM 54.3 °F 49.3 °F 83% 29.86 in - South 10.4 mph - N/A   Clear
4:55 PM 53.6 °F 49.3 °F 85% 29.86 in - South 13.8 mph - N/A   Clear
5:15 PM 53.8 °F 49.3 °F 85% 29.86 in - South 13.8 mph - N/A   Clear
5:35 PM 53.2 °F 49.3 °F 86% 29.86 in - SSE 13.8 mph - N/A   Unknown
5:55 PM 53.4 °F 49.3 °F 86% 29.85 in - South 15.0 mph - N/A   Unknown
6:15 PM 53.6 °F 49.3 °F 85% 29.86 in - South 15.0 mph - N/A   Clear
6:35 PM 53.6 °F 49.3 °F 85% 29.86 in - South 13.8 mph - N/A   Clear
6:55 PM 52.9 °F 49.1 °F 87% 29.86 in - South 13.8 mph - N/A   Unknown
7:15 PM 53.8 °F 49.1 °F 84% 29.87 in - South 17.3 mph - N/A   Clear
7:35 PM 53.6 °F 48.9 °F 84% 29.87 in - South 12.7 mph - N/A   Clear
7:55 PM 52.9 °F 48.6 °F 85% 29.86 in - South 15.0 mph 19.6 mph N/A   Unknown
8:15 PM 52.9 °F 48.6 °F 85% 29.86 in - South 17.3 mph 21.9 mph N/A   Unknown
8:35 PM 53.1 °F 48.7 °F 85% 29.87 in - South 15.0 mph - N/A   Unknown
8:55 PM 53.8 °F 48.6 °F 82% 29.86 in - South 17.3 mph 25.3 mph N/A   Clear
9:15 PM 53.6 °F 48.6 °F 83% 29.86 in - South 18.4 mph 25.3 mph N/A   Clear
9:35 PM 53.6 °F 48.4 °F 82% 29.86 in - South 21.9 mph 26.5 mph N/A   Clear
9:55 PM 53.2 °F 48.2 °F 83% 29.85 in - South 17.3 mph 24.2 mph N/A   Clear
10:15 PM 53.2 °F 47.8 °F 82% 29.86 in - South 18.4 mph 24.2 mph N/A   Clear
10:35 PM 53.2 °F 47.8 °F 82% 29.86 in - South 19.6 mph 25.3 mph N/A   Clear
10:55 PM 53.6 °F 47.5 °F 80% 29.85 in - South 20.7 mph 26.5 mph N/A   Clear
11:15 PM 53.8 °F 47.3 °F 79% 29.85 in - South 19.6 mph 25.3 mph N/A   Clear
11:35 PM 53.6 °F 47.3 °F 79% 29.85 in - South 19.6 mph 24.2 mph N/A   Clear
11:55 PM 53.6 °F 47.3 °F 79% 29.85 in - South 17.3 mph - N/A   Clear